Location: Bédeille
(43.0872°N, 1.1041°E)
Time: 12:20:58
(UTC+00:00)

Nadezhda 2 Rocket - Pass Details

Date: 03 February 2023
Orbit: 947 x 1011 km, 83.0° (Epoch: 19 March)

Event Time Altitude Azimuth Distance (km) Brightness Sun altitude
Rises 18:29:11 0° 352° (N) 3,670 7.5 -14.7°
Reaches altitude 10° 18:31:43 10° 353° (N) 2,711 6.8 -15.1°
Maximum altitude 18:37:56 86° 84° (E) 963 4.4 -16.3°
Drops below altitude 10° 18:44:02 10° 172° (S) 2,663 6.8 -17.4°
Sets 18:46:29 0° 173° (S) 3,602 7.5 -17.8°
